ISR826 EYVI-LLBG

Flight info

Callsign ISR826
Flight time N/A
Altitude 36000
Route UPASI DCT VABER L735 SUWGI M857 PODAN DCT GONPI DCT ARGES DCT RIXEN UN616 IST UT35 AYT UM855 TOMBI DCT PIKOG L609 ZUKKO
Aircraft A320/M-SDE2FGHIJ1LORVWY/SB1

Departure

Time N/A
Airport Vilnius International Airport (EYVI)

Arrival

Time 2026-05-07 20:58
Airport Ben Gurion International Airport (LLBG)
Time Latitude Longitude Altitude Speed Heading
2026-05-07 19:16 43.58881 19.35102 36994 ft 544 kts 130°
2026-05-07 19:16 43.56457 19.39158 37012 ft 551 kts 129°
2026-05-07 19:17 43.51539 19.47426 37009 ft 565 kts 128°
2026-05-07 19:17 43.46509 19.55911 37004 ft 578 kts 129°
2026-05-07 19:18 43.41408 19.64500 37012 ft 590 kts 129°
2026-05-07 19:18 43.36141 19.73318 37010 ft 603 kts 129°
2026-05-07 19:19 43.30758 19.82298 37005 ft 611 kts 129°
2026-05-07 19:19 43.25321 19.91336 37009 ft 616 kts 129°
2026-05-07 19:20 43.19858 20.00395 37008 ft 616 kts 129°
2026-05-07 19:20 43.14393 20.09451 37009 ft 617 kts 129°
2026-05-07 19:21 43.08950 20.18434 37009 ft 617 kts 129°
2026-05-07 19:21 43.03459 20.27446 37018 ft 617 kts 129°
2026-05-07 19:22 42.97966 20.36444 37025 ft 617 kts 129°
2026-05-07 19:22 42.92470 20.45430 37017 ft 616 kts 129°
2026-05-07 19:23 42.86955 20.54402 37002 ft 618 kts 129°
2026-05-07 19:23 42.81442 20.63364 37007 ft 617 kts 129°
2026-05-07 19:24 42.75913 20.72323 37037 ft 617 kts 130°
2026-05-07 19:24 42.70382 20.81236 37031 ft 616 kts 130°
2026-05-07 19:25 42.64890 20.90067 37031 ft 616 kts 130°
2026-05-07 19:25 42.59364 20.98943 37034 ft 615 kts 129°
2026-05-07 19:26 42.53844 21.07795 37028 ft 614 kts 130°
2026-05-07 19:26 42.48312 21.16618 37026 ft 614 kts 130°
2026-05-07 19:27 42.43706 21.23927 37024 ft 614 kts 130°
2026-05-07 19:27 42.38160 21.32715 37022 ft 614 kts 130°
2026-05-07 19:28 42.31709 21.42905 37025 ft 614 kts 130°
2026-05-07 19:28 42.27062 21.50246 37018 ft 614 kts 130°
2026-05-07 19:29 42.21498 21.58982 37011 ft 614 kts 130°
2026-05-07 19:29 42.15918 21.67709 37026 ft 614 kts 130°
2026-05-07 19:30 42.10379 21.76364 37032 ft 614 kts 130°
2026-05-07 19:30 42.04806 21.85048 37029 ft 613 kts 130°
2026-05-07 19:31 41.99233 21.93712 37019 ft 612 kts 130°
2026-05-07 19:31 41.93652 22.02362 37012 ft 612 kts 131°
2026-05-07 19:32 41.88066 22.10989 37010 ft 612 kts 131°
2026-05-07 19:32 41.82512 22.19538 37015 ft 612 kts 131°
2026-05-07 19:33 41.76913 22.28140 37022 ft 612 kts 131°
2026-05-07 19:33 41.71304 22.36727 37009 ft 613 kts 131°
2026-05-07 19:34 41.65686 22.45299 37000 ft 612 kts 131°
2026-05-07 19:34 41.60061 22.53868 37021 ft 613 kts 131°
2026-05-07 19:35 41.54467 22.62357 37025 ft 613 kts 131°
2026-05-07 19:35 41.48831 22.70884 37026 ft 612 kts 131°
2026-05-07 19:36 41.43198 22.79395 37026 ft 612 kts 131°
2026-05-07 19:36 41.37564 22.87885 37026 ft 612 kts 132°
2026-05-07 19:37 41.31914 22.96357 36984 ft 612 kts 132°
2026-05-07 19:37 41.26255 23.04820 37009 ft 612 kts 132°
2026-05-07 19:38 41.20630 23.13202 37026 ft 612 kts 132°
2026-05-07 19:38 41.14970 23.21618 37029 ft 611 kts 132°
2026-05-07 19:39 41.09317 23.30014 37023 ft 610 kts 132°
2026-05-07 19:39 41.03660 23.38388 37020 ft 610 kts 132°
2026-05-07 19:40 40.97998 23.46746 37017 ft 609 kts 132°
2026-05-07 19:40 40.92380 23.55031 37015 ft 609 kts 132°
2026-05-07 19:41 40.86704 23.63353 37012 ft 609 kts 132°
2026-05-07 19:41 40.81023 23.71661 37006 ft 610 kts 132°
2026-05-07 19:42 40.75334 23.79962 37004 ft 610 kts 132°
2026-05-07 19:42 40.69638 23.88252 37014 ft 610 kts 133°
2026-05-07 19:43 40.63975 23.96469 37018 ft 610 kts 133°
2026-05-07 19:43 40.58268 24.04729 37020 ft 610 kts 133°
2026-05-07 19:44 40.52556 24.12962 37021 ft 610 kts 133°
2026-05-07 19:44 40.46836 24.21194 37020 ft 609 kts 133°
2026-05-07 19:45 40.41118 24.29414 37020 ft 610 kts 133°
2026-05-07 19:45 40.35388 24.37610 37021 ft 610 kts 133°
2026-05-07 19:46 40.29692 24.45745 37022 ft 610 kts 133°
2026-05-07 19:46 40.23952 24.53929 37023 ft 610 kts 133°
2026-05-07 19:47 40.18208 24.62089 37023 ft 610 kts 133°
2026-05-07 19:47 40.12453 24.70238 37021 ft 610 kts 133°
2026-05-07 19:48 40.06698 24.78365 37019 ft 609 kts 133°
2026-05-07 19:48 40.00977 24.86424 37018 ft 609 kts 133°
2026-05-07 19:49 39.95211 24.94521 37017 ft 609 kts 133°
2026-05-07 19:49 39.89441 25.02606 37016 ft 609 kts 133°
2026-05-07 19:50 39.83663 25.10677 37013 ft 609 kts 134°
2026-05-07 19:50 39.77881 25.18733 37014 ft 609 kts 134°
2026-05-07 19:51 39.72095 25.26789 37017 ft 610 kts 134°
2026-05-07 19:51 39.66302 25.34832 37021 ft 610 kts 134°
2026-05-07 19:52 39.60534 25.42799 37022 ft 610 kts 134°
2026-05-07 19:52 39.54723 25.50812 37024 ft 610 kts 134°
2026-05-07 19:53 39.48903 25.58820 37026 ft 610 kts 134°
2026-05-07 19:53 39.43084 25.66813 37026 ft 610 kts 134°
2026-05-07 19:54 39.37278 25.74762 37028 ft 610 kts 134°
2026-05-07 19:54 39.31451 25.82709 36997 ft 612 kts 132°
2026-05-07 19:55 39.25581 25.90689 36999 ft 614 kts 132°
2026-05-07 19:55 39.19701 25.98678 36993 ft 615 kts 132°
2026-05-07 19:56 39.13809 26.06676 36990 ft 615 kts 132°
2026-05-07 19:56 39.07900 26.14659 37015 ft 616 kts 132°
2026-05-07 19:57 39.02018 26.22578 37017 ft 616 kts 132°
2026-05-07 19:57 38.96101 26.30534 37023 ft 616 kts 132°
2026-05-07 19:58 38.90178 26.38476 37025 ft 616 kts 132°
2026-05-07 19:58 38.84247 26.46398 37027 ft 615 kts 132°
2026-05-07 19:59 38.78314 26.54309 37022 ft 615 kts 133°
2026-05-07 19:59 38.72377 26.62195 37020 ft 615 kts 133°
2026-05-07 20:00 38.66476 26.70021 37021 ft 615 kts 133°
2026-05-07 20:00 38.60533 26.77891 37021 ft 615 kts 133°
2026-05-07 20:01 38.54589 26.85756 37021 ft 615 kts 133°
2026-05-07 20:01 38.48630 26.93597 37021 ft 615 kts 133°
2026-05-07 20:02 38.42663 27.01417 37020 ft 615 kts 133°
2026-05-07 20:02 38.36737 27.09182 37018 ft 615 kts 133°
2026-05-07 20:03 38.30765 27.16996 37012 ft 615 kts 133°
2026-05-07 20:03 38.24785 27.24799 37012 ft 616 kts 133°
2026-05-07 20:04 38.18797 27.32584 37017 ft 616 kts 133°
2026-05-07 20:04 38.12801 27.40356 37021 ft 616 kts 133°
2026-05-07 20:05 38.06799 27.48113 37023 ft 616 kts 133°
2026-05-07 20:05 38.00797 27.55863 37021 ft 616 kts 133°
2026-05-07 20:06 37.94819 27.63561 36995 ft 618 kts 133°
2026-05-07 20:06 37.88787 27.71309 36999 ft 618 kts 133°
2026-05-07 20:07 37.82748 27.79040 37020 ft 617 kts 133°
2026-05-07 20:07 37.76716 27.86755 37029 ft 617 kts 134°
2026-05-07 20:08 37.70682 27.94456 37018 ft 616 kts 134°
2026-05-07 20:08 37.64684 28.02082 37022 ft 616 kts 134°
2026-05-07 20:09 37.58632 28.09744 37026 ft 616 kts 134°
2026-05-07 20:10 37.49551 28.21239 37000 ft 618 kts 134°
2026-05-07 20:10 37.43480 28.28896 36998 ft 618 kts 134°
2026-05-07 20:11 37.37433 28.36503 36987 ft 620 kts 134°
2026-05-07 20:11 37.31320 28.44167 36983 ft 621 kts 134°
2026-05-07 20:12 37.25191 28.51834 36991 ft 623 kts 134°
2026-05-07 20:12 37.19049 28.59500 37009 ft 623 kts 134°
2026-05-07 20:13 37.12907 28.67152 37029 ft 623 kts 134°
2026-05-07 20:13 37.06763 28.74793 37019 ft 622 kts 134°
2026-05-07 20:14 37.00648 28.82376 37003 ft 624 kts 134°
2026-05-07 20:14 36.94479 28.90007 37015 ft 623 kts 134°
2026-05-07 20:15 36.88324 28.97607 37029 ft 621 kts 135°
2026-05-07 20:15 36.82174 29.05167 37023 ft 620 kts 134°
2026-05-07 20:16 36.76020 29.12710 37023 ft 620 kts 135°
2026-05-07 20:16 36.69873 29.20229 37010 ft 619 kts 134°
2026-05-07 20:17 36.63769 29.27700 37008 ft 619 kts 135°
2026-05-07 20:17 36.57618 29.35213 37026 ft 619 kts 135°
2026-05-07 20:18 36.51466 29.42695 37032 ft 618 kts 135°
2026-05-07 20:18 36.45302 29.50169 36990 ft 619 kts 135°
2026-05-07 20:19 36.39122 29.57635 36987 ft 622 kts 135°
2026-05-07 20:19 36.32961 29.65085 36982 ft 624 kts 135°
2026-05-07 20:20 36.26739 29.72587 37038 ft 624 kts 135°
2026-05-07 20:20 36.20514 29.80052 37028 ft 622 kts 135°
2026-05-07 20:21 36.14300 29.87489 37046 ft 621 kts 135°
2026-05-07 20:21 36.08109 29.94911 37040 ft 619 kts 135°
2026-05-07 20:22 36.01931 30.02298 37033 ft 617 kts 135°
2026-05-07 20:22 35.95794 30.09607 37031 ft 617 kts 135°
2026-05-07 20:23 35.89624 30.16945 37028 ft 616 kts 135°
2026-05-07 20:23 35.83445 30.24268 37026 ft 616 kts 135°
2026-05-07 20:24 35.77266 30.31568 37028 ft 616 kts 135°
2026-05-07 20:24 35.71081 30.38861 37024 ft 616 kts 135°
2026-05-07 20:25 35.64896 30.46142 37023 ft 616 kts 136°
2026-05-07 20:25 35.58743 30.53362 37023 ft 615 kts 136°
2026-05-07 20:26 35.52556 30.60632 37022 ft 615 kts 136°
2026-05-07 20:26 35.46362 30.67880 37022 ft 615 kts 136°
2026-05-07 20:27 35.40158 30.75116 37022 ft 615 kts 136°
2026-05-07 20:27 35.33947 30.82342 37022 ft 615 kts 136°
2026-05-07 20:28 35.27737 30.89554 37022 ft 615 kts 136°
2026-05-07 20:28 35.21562 30.96715 37022 ft 615 kts 136°
2026-05-07 20:29 35.15350 31.03914 37022 ft 615 kts 136°
2026-05-07 20:29 35.09122 31.11094 37022 ft 615 kts 136°
2026-05-07 20:30 35.02897 31.18263 37022 ft 616 kts 136°
2026-05-07 20:30 34.96659 31.25423 37022 ft 616 kts 136°
2026-05-07 20:31 34.90464 31.32522 37022 ft 616 kts 136°
2026-05-07 20:31 34.84227 31.39664 37022 ft 616 kts 136°
2026-05-07 20:32 34.77977 31.46792 37022 ft 616 kts 136°
2026-05-07 20:32 34.71730 31.53907 37022 ft 616 kts 136°
2026-05-07 20:33 34.65481 31.61019 37022 ft 615 kts 136°
2026-05-07 20:33 34.59226 31.68120 37022 ft 615 kts 136°
2026-05-07 20:34 34.53004 31.75154 37022 ft 615 kts 136°
2026-05-07 20:34 34.46739 31.82227 37022 ft 615 kts 136°
2026-05-07 20:35 34.40471 31.89290 37022 ft 615 kts 137°
2026-05-07 20:35 34.34192 31.96341 37021 ft 615 kts 137°
2026-05-07 20:36 34.27909 32.03377 37021 ft 615 kts 137°
2026-05-07 20:36 34.21675 32.10365 37021 ft 615 kts 137°
2026-05-07 20:37 34.15392 32.17392 37021 ft 615 kts 137°
2026-05-07 20:37 34.09107 32.24403 37021 ft 615 kts 137°
2026-05-07 20:38 34.02811 32.31408 37021 ft 615 kts 137°
2026-05-07 20:38 33.96515 32.38400 37021 ft 615 kts 137°
2026-05-07 20:39 33.90212 32.45377 37021 ft 615 kts 137°
2026-05-07 20:39 33.83902 32.52338 37021 ft 615 kts 137°
2026-05-07 20:40 33.77637 32.59257 37021 ft 615 kts 137°
2026-05-07 20:40 33.71329 32.66210 37021 ft 615 kts 137°
2026-05-07 20:41 33.65009 32.73147 37021 ft 615 kts 137°
2026-05-07 20:41 33.58689 32.80074 37021 ft 615 kts 137°
2026-05-07 20:42 33.52365 32.86993 37021 ft 615 kts 137°
2026-05-07 20:42 33.46041 32.93909 37021 ft 615 kts 137°
2026-05-07 20:43 33.39757 33.00758 37021 ft 615 kts 137°
2026-05-07 20:43 33.33417 33.07646 37021 ft 615 kts 137°
2026-05-07 20:43 33.30236 33.11097 36475 ft 619 kts 137°
2026-05-07 20:44 33.27054 33.14547 35755 ft 614 kts 137°
2026-05-07 20:44 33.24062 33.18152 35010 ft 609 kts 129°
2026-05-07 20:44 33.21243 33.21923 34261 ft 609 kts 129°
2026-05-07 20:44 33.18420 33.25700 33512 ft 610 kts 129°
2026-05-07 20:45 33.15588 33.29491 32774 ft 615 kts 129°
2026-05-07 20:45 33.12742 33.33304 32021 ft 615 kts 129°
2026-05-07 20:45 33.09934 33.37071 31277 ft 616 kts 129°
2026-05-07 20:45 33.07086 33.40889 30529 ft 617 kts 129°
2026-05-07 20:46 33.04232 33.44711 29776 ft 618 kts 129°
2026-05-07 20:46 33.01363 33.48544 29023 ft 620 kts 130°
2026-05-07 20:46 32.98486 33.52380 28278 ft 622 kts 130°
2026-05-07 20:46 32.95599 33.56216 27522 ft 623 kts 130°
2026-05-07 20:47 32.92702 33.60066 26767 ft 625 kts 130°
2026-05-07 20:47 32.89800 33.63923 26015 ft 626 kts 130°
2026-05-07 20:47 32.86891 33.67790 25261 ft 628 kts 130°
2026-05-07 20:47 32.83971 33.71664 24510 ft 629 kts 130°
2026-05-07 20:48 32.81091 33.75478 23769 ft 626 kts 130°
2026-05-07 20:48 32.78152 33.79362 23008 ft 621 kts 130°
2026-05-07 20:48 32.75314 33.83114 22269 ft 616 kts 130°
2026-05-07 20:48 32.72461 33.86885 21519 ft 611 kts 130°
2026-05-07 20:49 32.69632 33.90621 20770 ft 606 kts 130°
2026-05-07 20:49 32.66823 33.94323 20015 ft 601 kts 130°
2026-05-07 20:49 32.64033 33.97992 19272 ft 596 kts 130°
2026-05-07 20:49 32.61267 34.01626 18520 ft 591 kts 130°
2026-05-07 20:50 32.58523 34.05229 17778 ft 586 kts 130°
2026-05-07 20:50 32.55799 34.08803 17021 ft 581 kts 130°
2026-05-07 20:50 32.53099 34.12341 16270 ft 577 kts 130°
2026-05-07 20:50 32.50418 34.15854 15518 ft 572 kts 130°
2026-05-07 20:51 32.47762 34.19333 14767 ft 567 kts 130°
2026-05-07 20:51 32.45121 34.22782 14020 ft 563 kts 130°
2026-05-07 20:51 32.42502 34.26200 13270 ft 559 kts 130°
2026-05-07 20:51 32.39901 34.29592 12516 ft 554 kts 130°
2026-05-07 20:52 32.37355 34.32911 11781 ft 550 kts 130°
2026-05-07 20:52 32.34792 34.36250 11028 ft 545 kts 130°
2026-05-07 20:52 32.32252 34.39559 10277 ft 541 kts 130°
2026-05-07 20:52 32.29733 34.42835 9519 ft 537 kts 130°
2026-05-07 20:53 32.27231 34.46088 8777 ft 532 kts 130°
2026-05-07 20:53 32.24775 34.49276 8012 ft 514 kts 130°
2026-05-07 20:53 32.22409 34.52335 7265 ft 494 kts 130°
2026-05-07 20:53 32.20125 34.55283 6520 ft 480 kts 130°
2026-05-07 20:54 32.17902 34.58157 5772 ft 469 kts 129°
2026-05-07 20:54 32.15742 34.60953 5030 ft 450 kts 131°
2026-05-07 20:54 32.13706 34.63587 4295 ft 431 kts 131°
2026-05-07 20:54 32.11863 34.66236 3553 ft 413 kts 120°
2026-05-07 20:55 32.10461 34.69075 3067 ft 382 kts 116°
2026-05-07 20:55 32.09254 34.71654 2410 ft 338 kts 118°
2026-05-07 20:55 32.08080 34.73869 2409 ft 301 kts 119°
2026-05-07 20:55 32.07018 34.75875 2183 ft 279 kts 118°
2026-05-07 20:56 32.06031 34.77784 1839 ft 266 kts 118°
2026-05-07 20:56 32.05092 34.79601 1488 ft 249 kts 118°
2026-05-07 20:56 32.04245 34.81233 1175 ft 225 kts 118°
2026-05-07 20:56 32.03466 34.82733 897 ft 205 kts 119°
2026-05-07 20:57 32.02763 34.84088 667 ft 182 kts 120°
2026-05-07 20:57 32.02143 34.85279 456 ft 157 kts 120°
2026-05-07 20:57 32.01605 34.86317 224 ft 144 kts 119°
2026-05-07 20:57 32.01104 34.87286 127 ft 126 kts 119°
2026-05-07 20:58 32.00714 34.88048 117 ft 78 kts 122°
2026-05-07 20:58 32.00524 34.88410 121 ft 29 kts 122°
2026-05-07 20:58 32.00410 34.88568 119 ft 24 kts 141°
2026-05-07 20:58 32.00297 34.88655 118 ft 18 kts 153°
2026-05-07 20:59 32.00224 34.88688 119 ft 14 kts 163°
2026-05-07 20:59 32.00149 34.88708 118 ft 12 kts 181°
2026-05-07 20:59 32.00105 34.88631 119 ft 14 kts 291°
2026-05-07 20:59 32.00162 34.88515 119 ft 19 kts 301°
2026-05-07 21:00 32.00236 34.88373 118 ft 22 kts 301°
2026-05-07 21:00 32.00321 34.88209 118 ft 25 kts 301°
2026-05-07 21:00 32.00409 34.88039 118 ft 24 kts 300°
2026-05-07 21:00 32.00496 34.87872 117 ft 24 kts 300°
2026-05-07 21:01 32.00584 34.87703 118 ft 18 kts 301°
2026-05-07 21:01 32.00644 34.87589 119 ft 17 kts 302°
2026-05-07 21:01 32.00706 34.87468 118 ft 14 kts 301°
2026-05-07 21:01 32.00741 34.87400 117 ft 7 kts 294°
2026-05-07 21:02 32.00705 34.87379 119 ft 8 kts 182°
2026-05-07 21:02 32.00656 34.87379 117 ft 4 kts 179°
2026-05-07 21:02 32.00647 34.87379 119 ft 0 kts 179°